This demonstration page uses our WeatherBlox Daily Observations layout. Learn more.

Left ArrowRight Arrow

40.92945, -100.16068

Hourly Observations for September 17, 2017

Temp ( °F °C ) Dew Point ( °F °C ) Humidity (%) Winds ( mph kmh ) Pressure ( in mb ) Visibility ( mi km ) Precip ( " mm )
12:15 am 00:15 Clear 51 10.8 46 7.6 81 81 NNE 5 7 30.15 1021 10 16 0.00 0.00
12:35 am 00:35 Clear 50 10 46 7.5 85 85 N 3 6 30.15 1021 10 16 0.00 0.00
12:55 am 00:55 Clear 50 9.9 45 7.4 85 85 Calm 30.18 1022 10 16 0.00 0.00
1:15 am 01:15 Clear 49 9.7 45 7.3 85 85 NNE 3 6 30.18 1022 10 16 0.00 0.00
1:35 am 01:35 Clear 49 9.3 45 7 86 86 Calm 30.18 1022 10 16 0.00 0.00
1:55 am 01:55 Clear 48 8.9 44 6.6 86 86 E 3 6 30.18 1022 10 16 0.00 0.00
2:15 am 02:15 Clear 47 8.5 44 6.7 89 89 Calm 30.18 1022 10 16 0.00 0.00
2:35 am 02:35 Clear 46 7.8 43 6.2 90 90 NE 3 6 30.21 1023 10 16 0.00 0.00
2:55 am 02:55 Clear 46 7.5 43 6.1 91 91 Calm 30.21 1023 10 16 0.00 0.00
3:15 am 03:15 Clear 46 7.6 44 6.4 92 92 Calm 30.21 1023 10 16 0.00 0.00
3:35 am 03:35 Partly Cloudy 46 7.9 43 6.3 90 90 Calm 30.21 1023 10 16 0.00 0.00
3:55 am 03:55 Partly Cloudy 44 6.6 41 5 90 90 SW 3 6 30.24 1024 10 16 0.00 0.00
4:15 am 04:15 Clear 44 6.6 42 5.4 92 92 Calm 30.24 1024 10 16 0.00 0.00
4:35 am 04:35 Clear 44 6.7 42 5.6 93 93 N 5 7 30.21 1023 10 16 0.00 0.00
4:55 am 04:55 Clear 43 6.2 41 5.1 93 93 WNW 5 7 30.24 1024 10 16 0.00 0.00
5:15 am 05:15 Partly Cloudy 44 6.8 42 5.7 93 93 Calm 30.24 1024 10 16 0.00 0.00
5:35 am 05:35 Mostly Cloudy 44 6.4 42 5.3 93 93 Calm 30.27 1025 10 16 0.00 0.00
5:55 am 05:55 Partly Cloudy 43 6.1 41 5 93 93 Calm 30.27 1025 10 16 0.00 0.00
6:15 am 06:15 Partly Cloudy 43 6.2 41 5.1 93 93 WNW 5 7 30.27 1025 10 16 0.00 0.00
6:35 am 06:35 Clear 44 6.9 43 5.9 93 93 N 5 7 30.27 1025 10 16 0.00 0.00
6:55 am 06:55 Clear 44 6.9 42 5.8 93 93 Calm 30.27 1025 10 16 0.00 0.00
7:15 am 07:15 Partly Cloudy 44 6.5 42 5.5 93 93 NNE 5 7 30.24 1024 10 16 0.00 0.00
7:35 am 07:35 Partly Cloudy 45 7.1 43 6 93 93 NW 5 7 30.27 1025 10 16 0.00 0.00
7:55 am 07:55 Mostly Cloudy 46 7.6 44 6.5 93 93 Calm 30.27 1025 10 16 0.00 0.00
8:15 am 08:15 Partly Cloudy 46 7.9 44 6.6 92 92 NW 5 7 30.30 1026 10 16 0.00 0.00
8:35 am 08:35 Sunny 47 8.1 44 6.7 91 91 Calm 30.27 1025 10 16 0.00 0.00
8:55 am 08:55 Partly Cloudy 48 9.1 45 7.4 89 89 NNE 5 7 30.24 1024 10 16 0.00 0.00
9:15 am 09:15 Partly Cloudy 49 9.3 45 7.1 86 86 NNE 7 11 30.24 1024 10 16 0.00 0.00
9:35 am 09:35 Partly Cloudy 51 10.3 45 7.4 82 82 NE 3 6 30.24 1024 10 16 0.00 0.00
9:55 am 09:55 Partly Cloudy 51 10.7 45 7 78 78 ENE 6 9 30.24 1024 10 16 0.00 0.00
10:15 am 10:15 Mostly Cloudy 52 11.2 44 6.8 75 75 E 9 15 30.24 1024 10 16 0.00 0.00
10:35 am 10:35 Partly Cloudy 54 12.3 45 7 70 70 E 10 17 30.21 1023 10 16 0.00 0.00
10:55 am 10:55 Sunny 56 13.5 44 6.5 63 63 E 13 20 30.21 1023 10 16 0.00 0.00
11:15 am 11:15 Partly Cloudy 57 14 43 6.2 60 60 E 12 19 30.21 1023 10 16 0.00 0.00
11:35 am 11:35 Mostly Cloudy 57 14 44 6.4 60 60 ESE 10 17 30.24 1024 10 16 0.00 0.00
11:55 am 11:55 Mostly Cloudy 60 15.3 44 6.4 56 56 SE 13 20 30.24 1024 10 16 0.00 0.00
12:15 pm 12:15 Partly Cloudy 60 15.6 44 6.5 55 55 SE 7 11 30.21 1023 10 16 0.00 0.00
12:35 pm 12:35 Sunny 62 16.4 44 6.4 52 52 E 8 13 30.18 1022 10 16 0.00 0.00
12:55 pm 12:55 Sunny 62 16.7 44 6.5 51 51 E 12 19 30.18 1022 10 16 0.00 0.00
1:15 pm 13:15 Sunny 63 17.1 44 6.8 51 51 E 10 17 30.15 1021 10 16 0.00 0.00
1:35 pm 13:35 Sunny 64 18 44 6.9 48 48 E 10 17 30.15 1021 10 16 0.00 0.00
1:55 pm 13:55 Sunny 65 18.4 44 6.6 46 46 ESE 12 19 30.09 1019 10 16 0.00 0.00
2:15 pm 14:15 Sunny 66 18.7 44 6.7 46 46 E 6 9 30.09 1019 10 16 0.00 0.00
2:35 pm 14:35 Sunny 66 19.1 44 6.6 44 44 E 7 11 30.09 1019 10 16 0.00 0.00
2:55 pm 14:55 Sunny 68 20 44 6.8 42 42 E 10 17 30.06 1018 10 16 0.00 0.00
3:15 pm 15:15 Sunny 69 20.5 43 6.2 40 40 SE 13 20 30.06 1018 10 16 0.00 0.00
3:35 pm 15:35 Sunny 70 21 43 5.9 38 38 SSE 10 17 30.00 1016 10 16 0.00 0.00
3:55 pm 15:55 Sunny 70 21.3 44 6.4 38 38 ESE 9 15 30.00 1016 10 16 0.00 0.00
4:15 pm 16:15 Sunny 71 21.4 44 6.7 39 39 ESE 13 20 30.00 1016 10 16 0.00 0.00
4:35 pm 16:35 Sunny 71 21.6 44 6.9 39 39 ESE 16 26 29.97 1015 10 16 0.00 0.00
4:55 pm 16:55 Mostly Cloudy 71 21.4 44 6.9 39 39 E 12 19 29.97 1015 10 16 0.00 0.00
5:15 pm 17:15 Partly Cloudy 71 21.4 45 7.2 40 40 ESE 16 26 29.97 1015 10 16 0.00 0.00
5:35 pm 17:35 Mostly Cloudy 71 21.6 47 8.1 42 42 SE 14 22 29.97 1015 10 16 0.00 0.00
5:55 pm 17:55 Cloudy 69 20.5 47 8.2 45 45 SE 10 17 29.97 1015 10 16 0.00 0.00
6:15 pm 18:15 Cloudy 68 20.1 47 8.5 47 47 ESE 14 22 30.00 1016 10 16 0.00 0.00
6:35 pm 18:35 Cloudy 68 20 47 8.6 48 48 SSE 13 20 29.97 1015 10 16 0.00 0.00
6:55 pm 18:55 Cloudy 68 19.8 47 8.5 48 48 SE 13 20 29.97 1015 10 16 0.00 0.00
7:15 pm 19:15 Cloudy 67 19.3 48 9 51 51 SE 12 19 29.97 1015 10 16 0.00 0.00
7:35 pm 19:35 Cloudy 66 18.8 49 9.2 54 54 SE 12 19 29.97 1015 10 16 0.00 0.00
7:55 pm 19:55 Cloudy 65 18.3 49 9.5 57 57 SE 8 13 29.97 1015 10 16 0.00 0.00
8:15 pm 20:15 Mostly Cloudy 64 17.9 49 9.2 57 57 SE 9 15 29.97 1015 10 16 0.00 0.00
8:35 pm 20:35 Partly Cloudy 64 17.5 49 9.6 60 60 SE 9 15 29.97 1015 10 16 0.00 0.00
8:55 pm 20:55 Partly Cloudy 63 17 50 9.9 63 63 ESE 9 15 29.97 1015 10 16 0.00 0.00
9:15 pm 21:15 Mostly Cloudy 63 17.2 50 10.1 63 63 SSE 9 15 29.97 1015 10 16 0.00 0.00
9:35 pm 21:35 Cloudy 64 17.5 50 10.2 62 62 SSE 12 19 30.00 1016 10 16 0.00 0.00
9:55 pm 21:55 Cloudy with Nearby Thunderstorms 64 17.5 50 10 62 62 ESE 12 19 29.97 1015 10 16 0.00 0.00
10:15 pm 22:15 Cloudy with Nearby Thunderstorms 63 17.1 50 10.1 64 64 SSE 9 15 30.00 1016 10 16 0.00 0.00
10:35 pm 22:35 Cloudy 63 17 51 10.5 66 66 SE 7 11 30.03 1017 10 16 0.00 0.00
10:55 pm 22:55 Cloudy 62 16.5 53 11.5 72 72 SSE 6 9 30.03 1017 10 16 0.00 0.00
11:15 pm 23:15 Cloudy with Thunderstorms 61 15.9 53 11.9 77 77 ESE 12 19 30.00 1016 10 16 0.00 0.00
11:35 pm 23:35 Cloudy with Light Rain 60 15.3 55 12.5 84 84 ESE 9 15 30.00 1016 10 16 0.00 0.00
11:55 pm 23:55 Cloudy with Nearby Thunderstorms 59 15.1 55 12.7 86 86 Calm 30.00 1016 10 16 0.00 0.00

Powered by AerisWeather